Flight Track Log - Related Links

Times and Time Zones

All times are in EDT time to prevent confusion due to time zone crossing. See the SKW6492 flight status page for this flight to view local times or setup timezone preferences in your user account.

Time Position Orientation Groundspeed Altitude Reporting Facility
EDT Latitude Longitude Course Direction KTS MPH feet Rate Location/Type
Thu 21:29:06 39.9367 -104.6806 16° North 176 203 7,600  Level Denver Center
Thu 21:30:08 40.0069 -104.6683 North 246 283 9,300 1,872 Climbing Denver Center
Thu 21:31:00 40.2245 -104.9849 346° North  Level Estimated
Thu 21:31:11 40.0867 -104.6644 North 297 342 11,500  Level Denver Center
Thu 21:32:00 40.3150 -105.0634 348° North  Level Estimated
Thu 21:32:12 40.1708 -104.6867 349° North 294 338 14,200  Level Denver Center
Thu 21:33:00 40.4055 -105.1421 346° North  Level Estimated
Thu 21:33:14 40.2547 -104.7086 349° North 306 352 16,100  Level Denver Center
Thu 21:34:00 40.5101 -105.1035 16° North  Level FlightAware Approximate
Thu 21:34:16 40.3531 -104.7361 348° North 330 380 18,000  Level Denver Center
Thu 21:35:18 40.4481 -104.7608 349° North 348 400 19,800 1,645 Climbing Denver Center
Thu 21:36:20 40.5478 -104.7872 349° North 362 417 21,400 1,500 Climbing Denver Center
Thu 21:37:22 40.6533 -104.8181 348° North 363 418 22,900 1,248 Climbing Denver Center
Thu 21:38:25 40.7583 -104.8417 350° North 365 420 24,000 1,104 Climbing Denver Center
Thu 21:39:27 40.8625 -104.8875 342° North 388 447 25,200 1,161 Climbing Denver Center
Thu 21:40:29 40.9658 -104.9358 341° North 395 455 26,400 1,161 Climbing Denver Center
Thu 21:41:31 41.0828 -104.9961 339° North 402 463 27,600 968 Climbing Denver Center
Thu 21:42:33 41.1839 -105.0450 340° North 404 465 28,400 871 Climbing Denver Center
Thu 21:43:35 41.3042 -105.1047 340° North 412 474 29,400 774 Climbing Denver Center
Thu 21:44:37 41.3922 -105.1928 323° Northwest 418 481 30,000 629 Climbing Denver Center
Thu 21:45:39 41.4919 -105.3069 319° Northwest 421 484 30,700 677 Climbing Denver Center
Thu 21:46:41 41.5778 -105.4044 320° Northwest 422 486 31,400 629 Climbing Denver Center
Thu 21:47:43 41.6781 -105.5222 319° Northwest 427 491 32,000 290 Climbing Denver Center
Thu 21:48:45 41.7656 -105.6231 319° Northwest 432 497 32,000  Level Denver Center
Thu 21:49:47 41.8553 -105.7267 319° Northwest 441 507 32,000  Level Denver Center
Thu 21:50:49 41.9586 -105.8492 319° Northwest 443 510 32,000  Level Denver Center
Thu 21:51:51 42.0494 -105.9531 320° Northwest 444 511 32,000  Level Denver Center
Thu 21:52:53 42.1508 -106.0744 318° Northwest 439 505 32,000  Level Denver Center
Thu 21:53:55 42.2394 -106.1789 319° Northwest 439 505 32,000  Level Denver Center
Thu 21:54:57 42.3422 -106.3008 319° Northwest 441 507 32,000  Level Denver Center
Thu 21:55:59 42.4308 -106.4058 319° Northwest 441 507 32,000  Level Denver Center
Thu 21:57:01 42.5336 -106.5286 319° Northwest 440 506 32,000  Level Denver Center
Thu 21:58:04 42.6211 -106.6339 318° Northwest 442 509 32,000  Level Denver Center
Thu 21:59:06 42.7231 -106.7558 319° Northwest 438 504 32,000  Level Denver Center
Thu 22:00:08 42.8081 -106.8614 318° Northwest 433 498 32,000  Level Denver Center
Thu 22:00:51 42.8792 -106.9508 317° Northwest 435 501 32,000  Level Salt Lake Center
Thu 22:01:52 42.9697 -107.0622 318° Northwest 435 501 32,000  Level Salt Lake Center
Thu 22:02:54 43.0611 -107.1689 320° Northwest 434 499 32,000  Level Salt Lake Center
Thu 22:03:56 43.1508 -107.2781 318° Northwest 432 497 32,000  Level Salt Lake Center
Thu 22:04:57 43.2400 -107.3889 318° Northwest 433 498 32,000  Level Salt Lake Center
Thu 22:05:59 43.3300 -107.5022 318° Northwest 438 504 32,000  Level Salt Lake Center
Thu 22:07:01 43.4194 -107.6164 317° Northwest 439 505 32,000 -146 Level Salt Lake Center
Thu 22:08:02 43.5081 -107.7272 318° Northwest 433 498 31,700 -1,561 Descending Salt Lake Center
Thu 22:09:04 43.6228 -107.8547 321° Northwest 440 506 28,800 -2,613 Descending Salt Lake Center
Thu 22:10:06 43.7125 -107.9522 322° Northwest 417 480 26,300 -2,439 Descending Salt Lake Center
Thu 22:11:07 43.7978 -108.0450 322° Northwest 394 453 23,800 -2,488 Descending Salt Lake Center
Thu 22:12:09 43.8783 -108.1353 321° Northwest 377 434 21,200 -2,371 Descending Salt Lake Center
Thu 22:13:11 43.9556 -108.2219 321° Northwest 363 418 18,900 -1,902 Descending Salt Lake Center
Thu 22:14:12 44.0272 -108.3019 321° Northwest 348 400 17,300 -1,512 Descending Salt Lake Center
Thu 22:15:14 44.0933 -108.3764 321° Northwest 331 381 15,800 -1,452 Descending Salt Lake Center
Thu 22:16:16 44.1536 -108.4439 321° Northwest 308 354 14,300 -1,610 Descending Salt Lake Center
Thu 22:17:17 44.2217 -108.5200 321° Northwest 283 326 12,500 -1,610 Descending Salt Lake Center
Thu 22:18:19 44.2764 -108.5806 322° Northwest 268 308 11,000 -1,452 Descending Salt Lake Center
Thu 22:19:21 44.3306 -108.6425 321° Northwest 259 298 9,500 -968 Descending Salt Lake Center
Thu 22:20:23 44.3853 -108.7028 322° Northwest 254 292 9,000 -244 Descending Salt Lake Center
Thu 22:21:24 44.4353 -108.7608 320° Northwest 247 284 9,000 -244 Level Salt Lake Center
Thu 22:22:26 44.4806 -108.8119 321° Northwest 232 267 8,500 -774 Descending Salt Lake Center
Thu 22:23:28 44.5256 -108.8633 321° Northwest 219 252 7,400 -878 Descending Salt Lake Center
Thu 22:24:29 44.5706 -108.9194 318° Northwest 216 249 6,700 -829 Descending Salt Lake Center
Thu 22:25:31 44.5461 -108.9814 241° Southwest 169 194 5,700 -629 Descending Salt Lake Center
Thu 22:26:33 44.5231 -109.0211 231° Southwest 160 184 5,400 -290 Descending Salt Lake Center

Login

Don't have an account? Register now (free) for customized features, flight alerts, and more!